When you browse on this site, cookies collect data to enhance your experience and personalize the content and advertising you see.
Visit our Privacy Policy to learn more. By continuing to use the site, you agree to this use of cookies and data.

Stündliche Wetter Barcelona

Heute, 12 Juli, Sonntag

Zeit Temperatur Niederschläge Wind Luftdruck Luftfeuchtigkeit
00:00 +26°C° 0.4 mm 2 m/S 759 mmHg 95%
01:00 +26°C° 0.4 mm 2 m/S 758 mmHg 95%
02:00 +25°C° 0.4 mm 1 m/S 758 mmHg 96%
03:00 +25°C° 0 mm 1 m/S 758 mmHg 96%
04:00 +25°C° 0 mm 1 m/S 758 mmHg 96%
05:00 +25°C° 0 mm 1 m/S 758 mmHg 96%
06:00 +26°C° 0 mm 1 m/S 758 mmHg 94%
07:00 +27°C° 0 mm 1 m/S 759 mmHg 91%
08:00 +28°C° 0 mm 1 m/S 759 mmHg 89%
09:00 +30°C° 0.1 mm 1 m/S 759 mmHg 79%
10:00 +32°C° 0.1 mm 1 m/S 759 mmHg 69%
11:00 +34°C° 0.1 mm 1 m/S 760 mmHg 59%
12:00 +34°C° 0.8 mm 2 m/S 759 mmHg 65%
13:00 +32°C° 0.8 mm 2 m/S 759 mmHg 71%
14:00 +31°C° 0.8 mm 2 m/S 758 mmHg 78%
15:00 +31°C° 0.6 mm 2 m/S 758 mmHg 79%
16:00 +30°C° 0.6 mm 2 m/S 757 mmHg 80%
17:00 +30°C° 0.6 mm 2 m/S 757 mmHg 81%
18:00 +29°C° 0.1 mm 2 m/S 757 mmHg 85%
19:00 +28°C° 0.1 mm 2 m/S 758 mmHg 89%
20:00 +27°C° 0.1 mm 1 m/S 758 mmHg 92%
21:00 +26°C° 0 mm 2 m/S 759 mmHg 93%
22:00 +26°C° 0 mm 2 m/S 759 mmHg 94%
23:00 +26°C° 0 mm 2 m/S 760 mmHg 94%

Morgen, 13 Juli, Montag

Zeit Temperatur Niederschläge Wind Luftdruck Luftfeuchtigkeit
00:00 +26°C° 0.1 mm 1 m/S 759 mmHg 95%
01:00 +26°C° 0.1 mm 1 m/S 759 mmHg 95%
02:00 +25°C° 0.1 mm 1 m/S 759 mmHg 95%
03:00 +25°C° 0 mm 1 m/S 759 mmHg 95%
04:00 +25°C° 0 mm 1 m/S 759 mmHg 95%
05:00 +25°C° 0 mm 1 m/S 759 mmHg 95%
06:00 +24°C° 0 mm 0 m/S 759 mmHg 93%
07:00 +25°C° 0 mm 0 m/S 760 mmHg 90%
08:00 +26°C° 0 mm 0 m/S 760 mmHg 88%
09:00 +30°C° 0 mm 1 m/S 760 mmHg 80%
10:00 +31°C° 0 mm 1 m/S 760 mmHg 73%
11:00 +33°C° 0 mm 1 m/S 760 mmHg 66%
12:00 +33°C° 0.4 mm 1 m/S 759 mmHg 70%
13:00 +32°C° 0.4 mm 1 m/S 759 mmHg 74%
14:00 +32°C° 0.4 mm 2 m/S 758 mmHg 78%
15:00 +31°C° 0.4 mm 2 m/S 758 mmHg 79%
16:00 +31°C° 0.4 mm 2 m/S 758 mmHg 79%
17:00 +30°C° 0.4 mm 2 m/S 757 mmHg 80%
18:00 +29°C° 0 mm 2 m/S 758 mmHg 83%
19:00 +28°C° 0 mm 2 m/S 759 mmHg 86%
20:00 +27°C° 0 mm 2 m/S 759 mmHg 89%
21:00 +27°C° 0 mm 2 m/S 759 mmHg 91%
22:00 +27°C° 0 mm 2 m/S 760 mmHg 92%
23:00 +26°C° 0 mm 2 m/S 760 mmHg 94%

übermorgen, 14 Juli, Dienstag

Zeit Temperatur Niederschläge Wind Luftdruck Luftfeuchtigkeit
00:00 +26°C° 0 mm 2 m/S 760 mmHg 95%
01:00 +26°C° 0 mm 2 m/S 759 mmHg 95%
02:00 +26°C° 0 mm 2 m/S 759 mmHg 96%
03:00 +25°C° 0 mm 1 m/S 759 mmHg 96%
04:00 +25°C° 0 mm 1 m/S 759 mmHg 95%
05:00 +25°C° 0 mm 1 m/S 759 mmHg 95%
06:00 +26°C° 0 mm 1 m/S 759 mmHg 92%
07:00 +27°C° 0 mm 1 m/S 760 mmHg 89%
08:00 +26°C° 0 mm 0 m/S 760 mmHg 86%
09:00 +30°C° 0.1 mm 1 m/S 760 mmHg 79%
10:00 +31°C° 0.1 mm 1 m/S 760 mmHg 73%
11:00 +33°C° 0.1 mm 1 m/S 760 mmHg 66%
12:00 +34°C° 0.4 mm 2 m/S 760 mmHg 66%
13:00 +34°C° 0.4 mm 2 m/S 759 mmHg 66%
14:00 +34°C° 0.4 mm 2 m/S 758 mmHg 67%
15:00 +32°C° 0.2 mm 2 m/S 758 mmHg 69%
16:00 +32°C° 0.2 mm 2 m/S 758 mmHg 72%
17:00 +31°C° 0.2 mm 3 m/S 757 mmHg 74%
18:00 +30°C° 0.1 mm 3 m/S 758 mmHg 79%
19:00 +28°C° 0.1 mm 3 m/S 758 mmHg 84%
20:00 +27°C° 0.1 mm 4 m/S 759 mmHg 89%
21:00 +27°C° 0 mm 3 m/S 759 mmHg 90%
22:00 +27°C° 0 mm 3 m/S 759 mmHg 92%
23:00 +26°C° 0 mm 2 m/S 760 mmHg 93%

15 Juli, Mittwoch

Zeit Temperatur Niederschläge Wind Luftdruck Luftfeuchtigkeit
00:00 +26°C° 0 mm 2 m/S 759 mmHg 94%
01:00 +26°C° 0 mm 2 m/S 759 mmHg 95%
02:00 +25°C° 0 mm 1 m/S 758 mmHg 96%
03:00 +25°C° 0 mm 1 m/S 758 mmHg 96%
04:00 +25°C° 0 mm 1 m/S 758 mmHg 96%
05:00 +25°C° 0 mm 1 m/S 758 mmHg 97%
06:00 +26°C° 0 mm 1 m/S 759 mmHg 93%
07:00 +27°C° 0 mm 1 m/S 759 mmHg 89%
08:00 +28°C° 0 mm 1 m/S 759 mmHg 85%
09:00 +30°C° 0.2 mm 1 m/S 759 mmHg 80%
10:00 +31°C° 0.2 mm 1 m/S 760 mmHg 75%
11:00 +33°C° 0.2 mm 1 m/S 760 mmHg 69%
12:00 +33°C° 0.2 mm 1 m/S 759 mmHg 66%
13:00 +34°C° 0.2 mm 1 m/S 758 mmHg 63%
14:00 +35°C° 0.2 mm 2 m/S 757 mmHg 60%
15:00 +32°C° 0.6 mm 2 m/S 757 mmHg 68%
16:00 +31°C° 0.6 mm 2 m/S 757 mmHg 77%
17:00 +29°C° 0.6 mm 2 m/S 756 mmHg 86%
18:00 +28°C° 0.3 mm 2 m/S 757 mmHg 88%
19:00 +27°C° 0.3 mm 2 m/S 757 mmHg 90%
20:00 +26°C° 0.3 mm 2 m/S 758 mmHg 91%
21:00 +26°C° 0.1 mm 2 m/S 758 mmHg 92%
22:00 +26°C° 0.1 mm 2 m/S 759 mmHg 92%
23:00 +26°C° 0.1 mm 3 m/S 759 mmHg 92%

16 Juli, Donnerstag

Zeit Temperatur Niederschläge Wind Luftdruck Luftfeuchtigkeit
00:00 +25°C° 0.1 mm 2 m/S 759 mmHg 93%
01:00 +25°C° 0.1 mm 2 m/S 758 mmHg 93%
02:00 +25°C° 0.1 mm 1 m/S 758 mmHg 94%
03:00 +24°C° 0 mm 1 m/S 758 mmHg 94%
04:00 +24°C° 0 mm 1 m/S 758 mmHg 94%
05:00 +24°C° 0 mm 1 m/S 758 mmHg 95%
06:00 +25°C° 0 mm 1 m/S 759 mmHg 92%
07:00 +26°C° 0 mm 1 m/S 759 mmHg 89%
08:00 +27°C° 0 mm 1 m/S 759 mmHg 87%
09:00 +29°C° 0 mm 2 m/S 759 mmHg 77%
10:00 +32°C° 0 mm 2 m/S 759 mmHg 67%
11:00 +35°C° 0 mm 2 m/S 759 mmHg 57%
12:00 +35°C° 0.1 mm 2 m/S 759 mmHg 54%
13:00 +36°C° 0.1 mm 2 m/S 758 mmHg 52%
14:00 +37°C° 0.1 mm 2 m/S 757 mmHg 49%
15:00 +35°C° 0.4 mm 3 m/S 757 mmHg 59%
16:00 +33°C° 0.4 mm 3 m/S 757 mmHg 70%
17:00 +30°C° 0.4 mm 3 m/S 756 mmHg 80%
18:00 +29°C° 0.3 mm 3 m/S 757 mmHg 83%
19:00 +28°C° 0.3 mm 3 m/S 758 mmHg 87%
20:00 +27°C° 0.3 mm 3 m/S 758 mmHg 90%
21:00 +26°C° 0 mm 2 m/S 759 mmHg 90%
22:00 +26°C° 0 mm 2 m/S 759 mmHg 91%
23:00 +26°C° 0 mm 1 m/S 759 mmHg 91%

17 Juli, Freitag

Zeit Temperatur Niederschläge Wind Luftdruck Luftfeuchtigkeit
00:00 +25°C° 0 mm 1 m/S 759 mmHg 92%
01:00 +25°C° 0 mm 1 m/S 759 mmHg 92%
02:00 +24°C° 0 mm 1 m/S 758 mmHg 92%
03:00 +24°C° 0 mm 1 m/S 758 mmHg 92%
04:00 +24°C° 0 mm 2 m/S 758 mmHg 92%
05:00 +24°C° 0 mm 2 m/S 758 mmHg 92%
06:00 +25°C° 0 mm 2 m/S 759 mmHg 88%
07:00 +26°C° 0 mm 2 m/S 759 mmHg 85%
08:00 +28°C° 0 mm 2 m/S 759 mmHg 81%
09:00 +30°C° 0 mm 2 m/S 759 mmHg 72%
10:00 +32°C° 0 mm 2 m/S 759 mmHg 63%
11:00 +35°C° 0 mm 2 m/S 759 mmHg 53%
12:00 +36°C° 0.1 mm 2 m/S 759 mmHg 52%
13:00 +36°C° 0.1 mm 2 m/S 758 mmHg 51%
14:00 +37°C° 0.1 mm 3 m/S 757 mmHg 50%
15:00 +35°C° 0.2 mm 3 m/S 757 mmHg 58%
16:00 +33°C° 0.2 mm 3 m/S 757 mmHg 66%
17:00 +30°C° 0.2 mm 3 m/S 756 mmHg 74%
18:00 +29°C° 0.1 mm 3 m/S 757 mmHg 79%
19:00 +28°C° 0.1 mm 3 m/S 757 mmHg 84%
20:00 +27°C° 0.1 mm 3 m/S 758 mmHg 90%
21:00 +27°C° 0.2 mm 3 m/S 758 mmHg 90%
22:00 +26°C° 0.2 mm 2 m/S 759 mmHg 91%
23:00 +26°C° 0.2 mm 2 m/S 759 mmHg 91%
Mehr zeigen